FENGYUN 1C DEB, 30728

Orbit data source: Space-Track

FENGYUN 1C DEB, 30728 is space debris in SSO originally from a launch on Mon, 10 May 1999 UTC launched from the Taiyaun Space Center, China (TSC). Fengyun 1C debris stems from the Chinese weather satellite Fengyun-1C, which was intentionally destroyed by a Chinese anti-satellite missile in 2007. This event dramatically increased the amount of space debris, with thousands of trackable fragments posing hazards to satellites and human spaceflight. The Fengyun 1C debris cloud has become a focal point in discussions about space sustainability and the need for international regulations to prevent the creation of new debris.

Loading next visibility...
Identifier
30728, 1999-025ASN
Orbit
SSO
Country
Flag of CNCN / PRC
Related business
Manufacturer
Unknown
Mission
Spacecraft
Bus & Motor
Unknown
Mass
Unknown
Launch date (UTC)
1999-05-10 (27 years ago)
Launch vehicle
Unknown
Launch site
Taiyaun Space Center, China (TSC)
Object type
Payload
Rocket body
Debris
Shape & HBR
Unknown shape, 0.1 m
Radar Cross Section
Small (<0.1 m²)

Expand to show TLE details & history
Last TLE update: 8 hours ago

TLE from 8 hours ago
0 FENGYUN 1C DEB
1 30728U 99025ASN 25353.76572799  .00000099  00000-0  58983-4 0  9990
2 30728  98.5292   0.2365 0099405  61.7402 299.3767 14.23476721977890
Epoch: 2025-12-19T18:22Z
TLE epoch observation values (Epoch: 2025-12-19T18:22:38.898Z)
Latitude
-0.00002°
Longitude
-4.02775°
Altitude
782.011 km
Speed
7.481 km/s
True Right ascension
00h 00m 56s
True Declination
0° 00' 00"
Sunlit
Object was in daylight at epoch
Visualization orbit readout
Latitude
Unknown
Longitude
Unknown
Altitude
Unknown
Speed
Unknown
Apparent Right ascension
Unknown
Apparent Declination
Unknown
Sunlit
N/A
Visualization observer readout
Local Sidereal Time
01:10:41
Azimuth
Unknown
Elevation
Unknown
Doppler factor
Unknown
Orbital elements
Apogee altitude
882.225 km
Perigee altitude
739.302 km
Semi-major axis
7,188.901 km
Eccentricity
0.00994
Inclination
98.5292°
RAAN
0.2365°
Arg. of periapsis
61.7402°
True anomaly
298.37804°
Mean anomaly
299.3767°
Eccentric anomaly
298.87797°
Mean motion
3.56082 °/min
Orbital period
101.1 mins
BSTAR
0.000058983
Loading maneuver chart data...
Computing Atmospheric mass density...

Documentation

Showing up to 5 results
|